Regional Weather Roundup
Issued by NWS Huntsville, AL

Home | Current Version | Previous Version | Text Only | Print | Product List | Glossary On
Versions: 1 2 3 4 5 6 7 8 9 10 11 12 13 14 15 16 17 18 19 20 21 22 23 24 25 26 27 28 29 30 31 32 33 34 35 36 37 38 39 40 41 42 43 44 45 46 47 48 49 50
000
ASUS44 KHUN 270910
RWRHUN

WEATHER ROUNDUP FOR THE TENNESSEE VALLEY
NATIONAL WEATHER SERVICE HUNTSVILLE AL
300 AM CST TUE JAN 27 2015

ALZ001>004-271000-
NORTHWEST ALABAMA

CITY           SKY/WX    TMP DP  RH WIND       PRES   REMARKS
COURTLAND HCN    N/A     34 N/A N/A SW3         N/A
RUSSELLVILLE     N/A     32 N/A N/A MISG        N/A
SHOALS AIRPORT CLEAR     34  28  79 CALM      29.93R
SHOALS TVA RES   N/A     30 N/A N/A MISG        N/A
$$

ALZ005>007-016-271000-
NORTH CENTRAL ALABAMA

CITY           SKY/WX    TMP DP  RH WIND       PRES   REMARKS
CULLMAN AG STN   N/A     34 N/A N/A CALM        N/A
DECATUR AP     CLEAR     34  31  88 CALM      29.91S
HUNTSVILLE AP  CLEAR     38  31  76 CALM      29.90F
MERIDIANVILLE  CLOUDY    36  30  80 CALM      29.89F
REDSTONE ARSN  MOCLDY    35  31  87 S2        29.89F
VINEMONT AP    FAIR      32  30  90 CALM      29.91S
$$

ALZ008>010-271000-
NORTHEAST ALABAMA

CITY           SKY/WX    TMP DP  RH WIND       PRES   REMARKS
ALBERTVILLE    PTCLDY    34  34 100 CALM      29.87F
FORT PAYNE     CLOUDY    34  30  86 CALM      29.88F
SCOTTSBORO AP  CLOUDY    36  32  87 CALM      29.90F
VALLEY HEAD      N/A     34 N/A N/A MISG        N/A
$$

TNZ076-096-097-271000-
SOUTHEASTERN MIDDLE TENNESSEE

CITY           SKY/WX    TMP DP  RH WIND       PRES   REMARKS
TULLAHOMA      CLOUDY    34  30  86 CALM      29.87F
WINCHESTER     CLOUDY    34  30  86 CALM      29.88F
$$

...SURROUNDING SITES...

CITY           SKY/WX    TMP DP  RH WIND       PRES   REMARKS
ATLANTA        MOCLDY    32  27  81 W9        29.87F WCI  24
ANNISTON       CLOUDY    37  32  82 CALM      29.91F
BIRMINGHAM     CLEAR     36  30  79 CALM      29.93F
CHATTANOOGA    CLOUDY    35  30  82 CALM      29.90F
CORINTH        FAIR      30  28  93 CALM      29.94R
DALTON         NOT AVBL
GADSDEN        MOCLDY   N/A N/A N/A CALM      29.90F
GOLDEN TRNGL   CLEAR     34  28  80 W3        29.95R
HALEYVILLE       N/A     30  29  96 CALM      29.93S
JACKSON TN     CLEAR     34  28  79 CALM      29.93S
LEWISBURG      CLOUDY    33  31  93 CALM      29.89S
MEMPHIS        CLEAR     42  33  70 W3        29.97R
MURFREESBORO   CLOUDY    35  32  89 CALM      29.89F
NASHVILLE      CLOUDY    35  32  88 CALM      29.90S
OXFORD MS      FAIR      34  32  93 NW3       29.99R
ROME           CLOUDY    35  30  82 CALM      29.90F
SAVANNAH       CLEAR     27  27 100 CALM      29.93S
TUPELO         CLEAR     37  32  82 W6        29.95R WCI  32
TUSCALOOSA     CLEAR     32  29  88 CALM      29.96F
$$

...GULF COAST WEATHER...

CITY           SKY/WX    TMP DP  RH WIND       PRES   REMARKS
GULFPORT       CLEAR     41  35  79 CALM      30.05F
PASCAGOULA     CLEAR     39  35  86 W3        30.04F
MOBILE         CLEAR     42  32  67 W5        30.03F
GULF SHORES    SUNNY     46  38  73 W7        30.04F
PENSACOLA      CLEAR     45  36  70 W3        30.03F
DESTIN         CLEAR     50  34  54 VRB3      30.03F
PANAMA CITY    CLEAR     44  38  78 NW7       30.04F
APPALACHICOLA  CLEAR     45  35  68 NW5       30.03R
$$




USA.gov is the U.S. government's official web portal to all federal, state and local government web resources and services.